[[{"header":{"parameterUnit":"m.s-1","parameterCategory":1,"la1":30.2991,"la2":30.254,"lo1":-89.0895,"lo2":-89.0444,"dy":0.0017,"dx":0.0017,"nx":28,"ny":28,"refTime":"2025-07-24T21:00:00:Z","depth":0,"parameterNumber":2,"parameterNumberName":"U-component_of_WINDS"},"data":[0,0,0,0,0,0,0,0,0,0,0,0,0,0,0,0,0,0,0,0,0,0,0,0,0,0,0,0,0,0,0,0,0,0,0,0,0,0,0,0,0,0,0,0,0,0,0,0,0,0,0,0,0,0,0,0,0,0,-4.3291,-4.3292,0,-4.3387,-4.3388,-4.3389,-4.3376,-4.3374,-4.3372,-4.3371,-4.3466,-4.3469,-4.3473,0,0,0,0,0,0,0,0,0,0,0,0,0,-4.3093,-4.3097,-4.3291,-4.3292,-4.3294,-4.3386,-4.3388,-4.3389,-4.3376,-4.3374,-4.3372,-4.337,-4.3464,-4.3469,-4.3474,0,0,0,0,0,0,0,0,0,0,0,0,0,-4.3183,-4.3098,-4.3291,-4.3298,-4.33,-4.3386,-4.3388,-4.3389,-4.3376,-4.3374,-4.3371,-4.3369,-4.3463,-4.3469,-4.3474,-4.3559,0,0,-4.3493,-4.3495,0,0,0,0,0,0,0,0,-4.3178,-4.319,-4.3296,-4.3298,-4.33,-4.3367,-4.3353,-4.3446,-4.3377,-4.3347,-4.3371,-4.3368,-4.3434,-4.3443,-4.3466,-4.3563,-4.3567,-4.3493,-4.3497,-4.3499,-4.3501,0,0,0,0,0,0,0,-4.3172,-4.3186,-4.3329,-4.3297,-4.33,-4.3295,-4.3305,-4.337,-4.3403,-4.335,-4.3349,-4.336,-4.3435,-4.346,-4.3468,-4.3569,-4.3493,-4.3498,-4.3502,-4.3504,-4.3737,-4.3739,0,0,0,0,0,0,-4.3164,-4.3181,-4.3326,-4.3332,-4.3232,-4.3301,-4.3312,-4.3348,-4.3402,-4.3408,-4.3362,-4.3359,-4.3451,-4.3461,-4.3471,-4.3571,-4.3499,-4.3505,-4.3508,-4.3734,-4.3738,-4.374,0,0,0,0,0,0,-4.316,-4.3177,-4.3322,-4.3256,-4.3274,-4.3307,-4.3347,-4.3351,-4.3376,-4.3412,-4.3417,-4.3382,-4.3449,-4.3463,-4.3537,-4.3574,-4.3508,-4.3513,-4.3731,-4.3735,-4.3739,-4.3772,0,0,0,0,0,0,-4.3154,-4.3176,-4.3209,-4.3257,-4.3278,-4.3387,-4.3349,-4.3354,-4.3386,-4.3383,-4.3432,-4.3437,-4.3448,-4.3528,-4.3542,-4.3581,-4.3518,-4.3728,-4.3733,-4.3738,-4.3768,-4.3777,-4.3784,0,0,0,0,0,-4.3147,-4.3215,-4.3211,-4.3228,-4.3321,-4.3389,-4.3401,-4.3413,-4.339,-4.3422,-4.3445,-4.3436,-4.3568,-4.3535,-4.3552,-4.3593,-4.3726,-4.3732,-4.3737,-4.3764,-4.3775,-4.3784,0,0,0,0,0,0,-4.317,-4.3221,-4.3217,-4.3303,-4.3342,-4.3387,-4.3429,-4.3425,-4.3471,-4.3466,-4.3479,-4.349,-4.3564,-4.3586,-4.3549,-4.3676,-4.3643,-4.3653,-4.3658,-4.3669,-4.3677,-4.3668,-4.3523,0,0,0,0,0,-4.3185,-4.3238,-4.3279,-4.335,-4.337,-4.3396,-4.3427,-4.3433,-4.3474,-4.349,-4.3518,-4.3557,-4.3607,-4.3639,-4.3688,-4.3772,-4.378,-4.3808,-4.3816,-4.3823,-4.383,-4.3873,-4.3884,-4.3759,-4.3759,-4.3759,0,0,-4.3216,-4.3251,-4.3283,-4.3356,-4.3387,-4.3439,-4.341,-4.3468,-4.3506,-4.3498,-4.3569,-4.3591,-4.3635,-4.3714,-4.375,-4.3735,-4.3867,-4.383,-4.3835,-4.3839,-4.388,-4.3892,-4.3902,-4.3763,-4.3763,-4.3762,0,0,-4.3299,-4.3332,-4.3393,-4.3425,-4.3472,-4.3489,-4.3504,-4.355,-4.3564,-4.3636,-4.363,-4.3676,-4.3762,-4.3793,-4.382,-4.3913,-4.3905,-4.3929,-4.3971,-4.4012,-4.4022,-4.4031,-4.4061,-4.4072,-4.3936,-4.3936,-4.3936,0,-4.3331,-4.3411,-4.3425,-4.3483,-4.3513,-4.351,-4.357,-4.36,-4.3661,-4.3681,-4.3664,-4.3771,-4.3801,-4.3885,-4.3907,-4.3931,-4.3946,-4.3922,-4.402,-4.4029,-4.4037,-4.4066,-4.4078,-4.3939,-4.3938,-4.3938,-4.3938,0,-4.3447,-4.3503,-4.3546,-4.3605,-4.3641,-4.37,-4.3721,-4.3756,-4.3759,-4.3777,-4.3848,-4.3884,-4.3938,-4.3959,-4.3963,-4.4043,-4.4032,-4.4017,-4.3984,-4.4051,-4.4078,-4.409,-4.3942,-4.3941,-4.3941,-4.394,0,0,-4.3546,-4.3611,-4.3626,-4.3651,-4.3703,-4.3745,-4.3804,-4.3857,-4.3885,-4.3927,-4.3974,-4.4047,-4.4033,-4.4064,-4.4071,-4.4108,-4.4176,-4.4089,-4.409,-4.4101,-4.4263,-4.4271,-4.4284,-4.4172,-4.4174,-4.4176,-4.4258,0,-4.3632,-4.3735,-4.3748,-4.3839,-4.3888,-4.3885,-4.3935,-4.3971,-4.3989,-4.4033,-4.4053,-4.4103,-4.4083,-4.4101,-4.4138,-4.416,-4.4208,-4.4155,-4.4213,-4.4215,-4.4199,-4.4299,-4.4308,-4.4384,-4.4269,-4.4271,-4.4273,0,-4.3745,-4.379,-4.3885,-4.3928,-4.3949,-4.3994,-4.4042,-4.4085,-4.4125,-4.4136,-4.417,-4.4172,-4.4229,-4.4196,-4.4275,-4.4238,-4.4263,-4.4277,-4.428,-4.4284,-4.4246,-4.4302,-4.4409,-4.4419,-4.429,-4.4289,-4.4287,0,-4.3803,-4.3888,-4.3955,-4.3977,-4.4029,-4.406,-4.4083,-4.4121,-4.4152,-4.4194,-4.4214,-4.4263,-4.4288,-4.4325,-4.4339,-4.4315,-4.4416,-4.4385,-4.4424,-4.4423,-4.4443,-4.4441,-4.4553,-4.4465,-4.4464,-4.4464,-4.4464,0,-4.3896,-4.3954,-4.3981,-4.4022,-4.4086,-4.4101,-4.4163,-4.4185,-4.4218,-4.4262,-4.4263,-4.4304,-4.4322,-4.4365,-4.4377,-4.4438,-4.445,-4.4459,-4.446,-4.4457,-4.4455,-4.4471,-4.4465,-4.4467,-4.4467,-4.4466,-4.4465,0,-4.3971,-4.3992,-4.4065,-4.4108,-4.412,-4.4165,-4.4201,-4.424,-4.4258,-4.4313,-4.4327,-4.4355,-4.4405,-4.4424,-4.4486,-4.4493,-4.4563,-4.4563,-4.455,-4.4549,-4.4586,-4.4581,-4.4709,-4.4725,-4.463,-4.463,-4.4631,0,-4.4027,-4.4071,-4.4119,-4.4148,-4.4172,-4.4221,-4.4251,-4.4267,-4.4299,-4.4347,-4.4379,-4.443,-4.4471,-4.4552,-4.4576,-4.4623,-4.4621,-4.4663,-4.4628,-4.4622,-4.4618,-4.4614,-4.4617,-4.4668,-4.4669,-4.467,-4.4671,0,-4.4123,-4.4131,-4.4176,-4.4224,-4.4261,-4.43,-4.4337,-4.4361,-4.4382,-4.4418,-4.447,-4.4501,-4.4564,-4.4613,-4.4661,-4.4683,-4.4679,-4.4682,-4.4693,-4.4688,-4.4678,-4.468,-4.4564,-4.4678,-4.4678,-4.4677,-4.4677,-4.4676,-4.4189,-4.4227,-4.4265,-4.4315,-4.4344,-4.4379,-4.4417,-4.4439,-4.4483,-4.4535,-4.4542,-4.4597,-4.4634,-4.4697,-4.4722,-4.4764,-4.4752,-4.4769,-4.4772,-4.4775,-4.4776,-4.4673,-4.4773,-4.4773,-4.4772,-4.4772,-4.4772,0,-4.4282,-4.4307,-4.4352,-4.4404,-4.4442,-4.4437,-4.4478,-4.4509,-4.4558,-4.4593,-4.4633,-4.4692,-4.4739,-4.4767,-4.4814,-4.4842,-4.4842,-4.4854,-4.485,-4.4855,-4.4786,-4.477,-4.4853,-4.4853,-4.4853,-4.4853,-4.4853,-4.4853,-4.4335,-4.4398,-4.441,-4.4487,-4.4511,-4.4565,-4.4588,-4.4619,-4.4647,-4.4712,-4.4752,-4.477,-4.4802,-4.4851,-4.4894,-4.4901,-4.4916,-4.4929,-4.4935,-4.4869,-4.486,-4.4852,-4.4837,-4.4933,-4.4933,-4.5,-4.5001,-4.5001]},{"header":{"parameterUnit":"m.s-1","parameterCategory":1,"la1":30.2991,"la2":30.254,"lo1":-89.0895,"lo2":-89.0444,"dy":0.0017,"dx":0.0017,"nx":28,"ny":28,"refTime":"2025-07-24T21:00:00:Z","depth":0,"parameterNumber":3,"parameterNumberName":"V-component_of_WINDS"},"data":[0,0,0,0,0,0,0,0,0,0,0,0,0,0,0,0,0,0,0,0,0,0,0,0,0,0,0,0,0,0,0,0,0,0,0,0,0,0,0,0,0,0,0,0,0,0,0,0,0,0,0,0,0,0,0,0,0,0,3.1238,3.1239,0,3.1345,3.1346,3.1347,3.1312,3.131,3.1307,3.1305,3.1414,3.1419,3.1424,0,0,0,0,0,0,0,0,0,0,0,0,0,3.1003,3.1008,3.1238,3.1239,3.124,3.1345,3.1346,3.1348,3.1312,3.131,3.1307,3.1304,3.1413,3.1419,3.1425,0,0,0,0,0,0,0,0,0,0,0,0,0,3.1107,3.1009,3.1237,3.1235,3.1236,3.1344,3.1346,3.1348,3.1313,3.1309,3.1306,3.1303,3.1411,3.1418,3.1426,3.1542,0,0,3.1449,3.1452,0,0,0,0,0,0,0,0,3.1101,3.1116,3.1234,3.1236,3.1237,3.1312,3.1303,3.1413,3.1314,3.1284,3.1305,3.1301,3.1383,3.1393,3.142,3.1547,3.1552,3.1449,3.1454,3.1457,3.146,0,0,0,0,0,0,0,3.1094,3.1111,3.128,3.1236,3.1238,3.1229,3.124,3.1324,3.1352,3.1286,3.1284,3.1297,3.1383,3.1413,3.1423,3.1554,3.1449,3.1456,3.1461,3.1464,3.1784,3.1788,0,0,0,0,0,0,3.1086,3.1105,3.1277,3.1283,3.1159,3.1236,3.1249,3.1291,3.1351,3.1356,3.13,3.1295,3.1402,3.1414,3.1426,3.1568,3.1457,3.1464,3.1469,3.178,3.1785,3.1789,0,0,0,0,0,0,3.1081,3.1102,3.1272,3.1194,3.1215,3.1244,3.1292,3.1295,3.1325,3.1361,3.1366,3.1326,3.14,3.1416,3.1514,3.1571,3.1468,3.1475,3.1775,3.1781,3.1787,3.1851,0,0,0,0,0,0,3.1075,3.11,3.1144,3.1195,3.1219,3.1358,3.1296,3.13,3.1338,3.1333,3.1386,3.1392,3.1398,3.1503,3.1522,3.158,3.1481,3.177,3.1778,3.1785,3.1844,3.1859,3.1871,0,0,0,0,0,3.1066,3.1158,3.1147,3.1168,3.1275,3.1361,3.1375,3.1381,3.1343,3.1388,3.1412,3.139,3.1562,3.1513,3.1534,3.1595,3.1767,3.1776,3.1784,3.1838,3.1856,3.1871,0,0,0,0,0,0,3.1112,3.1164,3.1153,3.1263,3.1308,3.1355,3.1412,3.1399,3.1456,3.1448,3.1452,3.1465,3.1566,3.1591,3.1536,3.1712,3.1659,3.1672,3.1693,3.171,3.1723,3.1715,3.1487,0,0,0,0,0,3.1135,3.1201,3.1243,3.1337,3.136,3.1383,3.142,3.1421,3.1468,3.1486,3.1517,3.1563,3.1628,3.167,3.1731,3.1848,3.186,3.19,3.1914,3.1925,3.1936,3.2001,3.202,3.1818,3.1818,3.1818,0,0,3.1183,3.122,3.1261,3.1347,3.1382,3.145,3.1399,3.1473,3.1524,3.1498,3.1593,3.1617,3.1669,3.1778,3.1827,3.1801,3.1995,3.1936,3.1944,3.195,3.2012,3.2031,3.2049,3.1824,3.1823,3.1822,0,0,3.1306,3.134,3.1423,3.1459,3.1513,3.1528,3.1548,3.1598,3.1613,3.1709,3.1691,3.1752,3.1863,3.1902,3.1936,3.2076,3.2059,3.2096,3.2166,3.2229,3.2245,3.2259,3.231,3.2328,3.2107,3.2107,3.2107,0,3.1359,3.1462,3.1466,3.1543,3.1582,3.1562,3.1646,3.1681,3.1753,3.178,3.175,3.189,3.1924,3.2042,3.2076,3.2104,3.2128,3.2089,3.2242,3.2257,3.227,3.2319,3.2338,3.2111,3.2111,3.2111,3.211,0,3.1525,3.1596,3.1656,3.1727,3.1772,3.1852,3.1869,3.1915,3.1912,3.1931,3.2029,3.2069,3.2139,3.2167,3.2165,3.2286,3.2268,3.2241,3.2187,3.2293,3.2339,3.2358,3.2117,3.2116,3.2115,3.2114,0,0,3.1678,3.1751,3.1773,3.1806,3.1865,3.1921,3.2,3.2069,3.2109,3.2159,3.2227,3.2322,3.2298,3.2337,3.2339,3.2394,3.2504,3.236,3.2361,3.2386,3.2642,3.2662,3.2684,3.2494,3.2497,3.25,3.2638,0,3.1806,3.1946,3.1954,3.2081,3.2148,3.2131,3.2201,3.2245,3.2265,3.2325,3.2346,3.2415,3.2376,3.24,3.2454,3.2479,3.2556,3.247,3.2557,3.256,3.2545,3.2707,3.2729,3.2857,3.2655,3.2658,3.2661,0,3.1974,3.203,3.2165,3.2216,3.2245,3.2307,3.2372,3.2429,3.248,3.249,3.2535,3.253,3.2612,3.2556,3.2671,3.2612,3.2649,3.2667,3.2672,3.268,3.2617,3.2721,3.2897,3.2917,3.2689,3.2686,3.2684,0,3.2073,3.2183,3.2278,3.2306,3.2368,3.2413,3.2441,3.2488,3.253,3.2587,3.2614,3.268,3.2716,3.2767,3.278,3.2738,3.2895,3.284,3.2907,3.2907,3.294,3.2938,3.3126,3.2964,3.2963,3.2963,3.2963,0,3.2215,3.2298,3.2324,3.2382,3.2475,3.2483,3.2575,3.2601,3.2643,3.2707,3.2697,3.2756,3.277,3.2833,3.2844,3.2938,3.2954,3.2966,3.2967,3.2967,3.2965,3.299,3.2982,3.2968,3.2967,3.2966,3.2965,0,3.2342,3.2362,3.2464,3.2516,3.2531,3.2597,3.2641,3.2698,3.2717,3.2798,3.2817,3.2847,3.2921,3.2939,3.3027,3.3035,3.3146,3.3139,3.3129,3.3129,3.3195,3.3189,3.3406,3.3435,3.3253,3.3255,3.3257,0,3.2431,3.2495,3.2554,3.2596,3.2626,3.2694,3.2736,3.2748,3.2793,3.2857,3.2906,3.2979,3.3038,3.3157,3.3187,3.3255,3.325,3.3321,3.326,3.3258,3.3252,3.3248,3.3255,3.3333,3.3335,3.3336,3.3338,0,3.2588,3.2596,3.2658,3.2725,3.2776,3.2829,3.2879,3.2915,3.2933,3.2985,3.3061,3.3106,3.3197,3.327,3.3339,3.3368,3.3357,3.3357,3.3376,3.3376,3.3368,3.3374,3.3161,3.3352,3.335,3.3349,3.3348,3.3348,3.27,3.2756,3.2807,3.2877,3.2916,3.2964,3.302,3.3047,3.3111,3.3185,3.3189,3.3272,3.3322,3.3414,3.3447,3.3513,3.3491,3.3519,3.3526,3.3533,3.3539,3.3358,3.3525,3.3525,3.3524,3.3524,3.3524,0,3.2857,3.2889,3.2954,3.3025,3.3081,3.3066,3.3121,3.3169,3.3242,3.3291,3.3349,3.3437,3.3509,3.3545,3.3616,3.3662,3.3658,3.368,3.3677,3.3684,3.3554,3.353,3.3681,3.3681,3.3681,3.3681,3.3681,3.3681,3.2945,3.304,3.3054,3.3169,3.3201,3.3282,3.3315,3.336,3.3399,3.3498,3.3557,3.3581,3.3625,3.37,3.3765,3.3774,3.3801,3.3825,3.3832,3.3709,3.3693,3.3678,3.3656,3.3831,3.3831,3.3957,3.3958,3.3959]}]]